Home > Time Zones > World Clock > Weather > India > Surat > Past weeks

Flag for India Weather past 2 weeks in Surat, Gujarat, India

Now
79 °F

Passing clouds.


Feels Like: 83 °F
Forecast: 80 / 88 °F
Wind: 3 mph from East

Location: Bombay / Santacruz

Current Time: Sep 24, 2014 at 5:03:57 AM

Latest Report: Sep 24, 2014 at 4:10 AM


Visibility: 2 mi

Pressure: 29.80 "Hg

Humidity: 94%

Dew point: 77 °F

Location of SuratLocation

Historic Weather in Surat — Graph

°F

Surat temperature yesterday

Maximum temperature yesterday: 86 °F (at 11:40 AM)
Minimum temperature yesterday: 79 °F (at 3:40 AM)
Average temperature yesterday: 82 °F

Past Weeks' High & Low Weather Summary

 TemperatureHumidityPressure
High88 °F (Sep 14, 2:10 PM)100% (Sep 10, 2:40 PM)29.86 "Hg (Sep 10, 2:40 PM)
Low77 °F (Sep 9, 12:40 PM)62% (Sep 14, 2:10 PM)29.68 "Hg (Sep 9, 4:10 PM)
Average82 °F84%29.78 "Hg
* Reported Sep 9 3:40 AM — Sep 24 3:40 AM, Surat, Weather by CustomWeather, © 2014

Note: Actual official high and low records may vary slightly from our data, if they occured in-between our weather recording intervals... More about our weather records

Advertising

Surat weather history for previous 24 hours

 ConditionsComfort  
Time TempWeatherWind HumidityBarometerVisibility
3:40 AM
Sep 24
81 °FPassing clouds.3 mph89%29.80 "Hg2 mi
1:40 AM82 °FPassing clouds.3 mph84%29.80 "Hg2 mi
1:10 AM82 °FPassing clouds.3 mph84%29.80 "Hg2 mi
12:10 AM82 °FPassing clouds.3 mph84%29.83 "Hg2 mi
11:40 PM
Sep 23
82 °FPassing clouds.5 mph84%29.83 "Hg2 mi
11:10 PM82 °FHaze.5 mph84%29.83 "Hg2 mi
10:40 PM84 °FHaze.6 mph79%29.83 "Hg2 mi
10:10 PM84 °FHaze.5 mph79%29.83 "Hg2 mi
9:10 PM84 °FHaze.7 mph74%29.83 "Hg2 mi
8:40 PM84 °FHaze.6 mph74%29.83 "Hg2 mi
8:10 PM84 °FHaze.7 mph74%29.80 "Hg2 mi
7:40 PM84 °FHaze.7 mph79%29.80 "Hg2 mi
7:10 PM84 °FHaze.7 mph74%29.80 "Hg2 mi
6:40 PM84 °FHaze.7 mph79%29.77 "Hg3 mi
6:10 PM86 °FHaze.9 mph75%29.77 "Hg3 mi
5:40 PM86 °FHaze.9 mph75%29.77 "Hg3 mi
11:40 AM86 °FBroken clouds.3 mph70%29.86 "Hg2 mi
10:40 AM84 °FBroken clouds.5 mph74%29.86 "Hg2 mi
10:10 AM84 °FBroken clouds.5 mph74%29.86 "Hg2 mi
9:10 AM82 °FBroken clouds.5 mph84%29.86 "Hg1 mi
8:40 AM81 °FBroken clouds.7 mph89%29.86 "Hg1 mi
8:10 AM81 °FBroken clouds.5 mph89%29.86 "Hg1 mi
7:10 AM79 °FScattered clouds.6 mph94%29.83 "Hg1 mi
6:10 AM79 °FPassing clouds.3 mph89%29.83 "Hg1 mi
5:40 AM79 °FPassing clouds.5 mph94%29.80 "Hg2 mi
Weather by CustomWeather, © 2014

See weather overviewHow to use our weather pages